Precipitable_Water
0.38 0.21 0.21 0.19 0.22 0.25 0.26 0.34 0.32 0.28 0.32 0.36 0.39 0.39 0.38 0.39 0.44 0.49 0.49 0.62 0.62 0.55 0.52 0.56 0.56 0.56 0.57 0.61 0.66 0.72 0.84 0.86 0.81 0.86 0.98 1.09 1.10 1.18 1.21 1.18 1.20 1.34 1.35 1.33 1.31 1.31 1.28 1.27 1.27 1.26 1.28 1.28 1.31 1.33 1.35 1.35 1.37 1.33 1.32 1.31 1.25 1.36 1.35 1.33 1.26 1.26 1.25 1.19 1.19 1.19 1.16 1.14 1.19 1.21 1.27 1.30 1.39 1.46 1.44 1.52 1.56 1.60 1.57 1.60 1.60 1.57
0.32 0.19 0.18 0.23 0.24 0.30 0.30 0.31 0.34 0.30 0.28 0.31 0.33 0.34 0.34 0.36 0.37 0.45 0.51 0.56 0.58 0.51 0.51 0.55 0.53 0.53 0.54 0.58 0.60 0.69 0.80 0.85 0.84 0.82 0.91 1.03 1.08 1.13 1.18 1.16 1.24 1.42 1.47 1.36 1.27 1.30 1.30 1.30 1.27 1.27 1.25 1.26 1.19 1.25 1.31 1.29 1.31 1.34 1.34 1.30 1.28 1.33 1.33 1.31 1.26 1.24 1.21 1.21 1.18 1.14 1.16 1.18 1.20 1.19 1.19 1.22 1.31 1.40 1.51 1.51 1.52 1.55 1.59 1.56 1.55 1.55
0.24 0.21 0.19 0.26 0.28 0.30 0.34 0.32 0.29 0.27 0.26 0.28 0.29 0.29 0.30 0.31 0.35 0.43 0.47 0.54 0.62 0.55 0.48 0.52 0.50 0.50 0.52 0.53 0.55 0.55 0.61 0.77 0.85 0.83 0.87 1.01 1.09 1.09 1.13 1.20 1.31 1.35 1.36 1.31 1.27 1.26 1.30 1.31 1.30 1.26 1.24 1.22 1.22 1.23 1.26 1.31 1.32 1.32 1.32 1.32 1.30 1.31 1.30 1.30 1.28 1.26 1.20 1.23 1.25 1.22 1.20 1.21 1.23 1.28 1.29 1.31 1.36 1.39 1.44 1.47 1.50 1.52 1.54 1.54 1.51 1.51
0.20 0.22 0.26 0.28 0.32 0.29 0.28 0.29 0.26 0.23 0.25 0.25 0.26 0.25 0.25 0.28 0.29 0.32 0.40 0.46 0.56 0.54 0.48 0.50 0.48 0.51 0.54 0.55 0.56 0.58 0.58 0.59 0.77 0.83 0.83 0.93 1.11 1.01 1.05 1.11 1.25 1.31 1.37 1.28 1.26 1.23 1.28 1.30 1.32 1.28 1.21 1.21 1.23 1.23 1.26 1.30 1.29 1.30 1.29 1.30 1.29 1.27 1.30 1.29 1.29 1.26 1.27 1.27 1.30 1.31 1.31 1.27 1.29 1.29 1.30 1.30 1.37 1.37 1.36 1.40 1.48 1.49 1.50 1.50 1.47 1.49
0.18 0.24 0.30 0.27 0.29 0.29 0.24 0.23 0.24 0.22 0.18 0.21 0.24 0.23 0.23 0.27 0.30 0.32 0.36 0.41 0.45 0.49 0.49 0.50 0.47 0.47 0.51 0.49 0.52 0.56 0.58 0.57 0.70 0.83 0.80 0.83 1.01 1.15 1.16 1.21 1.23 1.31 1.37 1.32 1.29 1.26 1.25 1.25 1.26 1.26 1.24 1.21 1.19 1.19 1.20 1.22 1.23 1.23 1.24 1.27 1.26 1.24 1.25 1.28 1.28 1.26 1.29 1.30 1.29 1.30 1.31 1.33 1.27 1.35 1.36 1.24 1.21 1.27 1.27 1.32 1.44 1.47 1.47 1.46 1.41 1.46
0.24 0.28 0.29 0.24 0.25 0.27 0.23 0.21 0.22 0.22 0.18 0.18 0.18 0.20 0.22 0.25 0.29 0.33 0.36 0.37 0.37 0.35 0.43 0.44 0.37 0.38 0.45 0.48 0.49 0.52 0.54 0.54 0.59 0.75 0.80 0.77 0.83 1.09 1.09 1.15 1.14 1.20 1.35 1.37 1.33 1.24 1.22 1.23 1.31 1.35 1.31 1.19 1.16 1.15 1.19 1.23 1.23 1.24 1.25 1.27 1.25 1.26 1.25 1.24 1.27 1.28 1.30 1.25 1.19 1.16 1.12 1.11 1.11 1.08 1.16 1.12 1.09 1.14 1.20 1.20 1.41 1.57 1.57 1.44 1.39 1.42
0.24 0.30 0.28 0.24 0.21 0.23 0.22 0.20 0.22 0.22 0.18 0.17 0.16 0.18 0.20 0.22 0.23 0.26 0.28 0.34 0.31 0.33 0.41 0.43 0.33 0.32 0.42 0.43 0.45 0.47 0.49 0.51 0.54 0.64 0.78 0.80 0.80 0.92 1.00 1.03 1.11 1.12 1.15 1.46 1.43 1.33 1.25 1.24 1.25 1.30 1.30 1.23 1.14 1.16 1.22 1.23 1.25 1.26 1.25 1.25 1.24 1.22 1.23 1.25 1.28 1.29 1.28 1.24 1.20 1.15 1.09 1.07 1.08 1.01 1.08 1.24 1.28 1.24 1.25 1.31 1.32 1.41 1.51 1.46 1.38 1.39
0.26 0.28 0.29 0.26 0.23 0.21 0.21 0.19 0.21 0.22 0.20 0.17 0.20 0.19 0.17 0.16 0.18 0.20 0.23 0.26 0.29 0.36 0.38 0.41 0.39 0.31 0.32 0.41 0.46 0.47 0.45 0.49 0.51 0.63 0.77 0.81 0.84 0.87 0.99 1.00 1.12 1.05 0.98 1.18 1.32 1.30 1.25 1.23 1.20 1.19 1.26 1.25 1.18 1.18 1.21 1.21 1.23 1.23 1.22 1.21 1.22 1.22 1.21 1.23 1.27 1.28 1.27 1.19 1.18 1.14 1.09 1.11 1.12 1.07 1.06 1.16 1.26 1.31 1.32 1.32 1.28 1.34 1.45 1.49 1.41 1.39
0.28 0.25 0.28 0.26 0.23 0.20 0.18 0.20 0.22 0.25 0.22 0.19 0.18 0.18 0.17 0.15 0.14 0.16 0.19 0.22 0.23 0.25 0.26 0.31 0.36 0.30 0.28 0.36 0.48 0.49 0.44 0.48 0.54 0.71 0.79 0.79 0.85 0.92 0.99 0.94 1.06 1.15 1.08 1.25 1.25 1.23 1.22 1.21 1.21 1.25 1.26 1.27 1.26 1.22 1.17 1.16 1.18 1.20 1.23 1.22 1.23 1.21 1.21 1.22 1.24 1.24 1.24 1.18 1.17 1.13 1.11 1.08 1.10 1.14 1.14 1.22 1.26 1.26 1.29 1.28 1.30 1.31 1.41 1.47 1.45 1.39
0.30 0.29 0.28 0.29 0.26 0.21 0.20 0.21 0.23 0.25 0.20 0.20 0.20 0.18 0.18 0.19 0.18 0.15 0.15 0.17 0.20 0.20 0.18 0.24 0.28 0.24 0.24 0.32 0.39 0.44 0.45 0.50 0.53 0.68 0.75 0.84 0.84 0.85 0.88 0.96 1.02 1.07 1.18 1.26 1.30 1.31 1.27 1.25 1.25 1.28 1.31 1.33 1.25 1.20 1.18 1.18 1.20 1.21 1.22 1.21 1.20 1.19 1.21 1.23 1.23 1.24 1.20 1.17 1.13 1.11 1.12 1.08 1.07 1.08 1.12 1.19 1.24 1.22 1.24 1.22 1.28 1.28 1.32 1.40 1.49 1.43
0.34 0.37 0.34 0.29 0.27 0.28 0.25 0.25 0.26 0.25 0.22 0.22 0.19 0.18 0.18 0.21 0.22 0.21 0.18 0.16 0.16 0.14 0.16 0.20 0.22 0.23 0.20 0.28 0.34 0.36 0.37 0.45 0.56 0.64 0.72 0.84 0.87 0.93 0.93 0.95 0.95 1.01 1.09 1.17 1.25 1.31 1.34 1.35 1.34 1.37 1.31 1.28 1.27 1.27 1.22 1.18 1.19 1.21 1.20 1.20 1.16 1.17 1.22 1.23 1.22 1.22 1.16 1.16 1.13 1.10 1.10 1.09 1.05 1.04 1.06 1.10 1.17 1.24 1.21 1.15 1.21 1.27 1.28 1.35 1.41 1.50
0.32 0.34 0.31 0.30 0.34 0.33 0.31 0.28 0.27 0.26 0.22 0.21 0.19 0.18 0.21 0.19 0.20 0.19 0.18 0.18 0.14 0.11 0.15 0.17 0.17 0.21 0.17 0.20 0.32 0.37 0.43 0.47 0.48 0.52 0.66 0.76 0.79 0.82 0.89 0.94 0.89 0.96 1.00 1.08 1.19 1.26 1.35 1.39 1.38 1.36 1.32 1.29 1.27 1.26 1.20 1.17 1.17 1.17 1.16 1.15 1.12 1.17 1.18 1.22 1.24 1.23 1.19 1.16 1.12 1.11 1.12 1.10 1.07 1.05 1.03 1.04 1.05 1.17 1.17 1.16 1.16 1.24 1.29 1.29 1.33 1.39
0.27 0.29 0.34 0.32 0.35 0.33 0.28 0.25 0.24 0.23 0.21 0.19 0.20 0.18 0.15 0.15 0.15 0.12 0.14 0.12 0.10 0.09 0.14 0.15 0.15 0.15 0.14 0.19 0.28 0.32 0.37 0.45 0.49 0.50 0.54 0.69 0.77 0.87 0.95 0.94 0.87 0.90 0.98 1.01 1.08 1.19 1.27 1.30 1.31 1.29 1.30 1.32 1.25 1.19 1.17 1.12 1.11 1.12 1.13 1.11 1.08 1.09 1.15 1.16 1.21 1.19 1.18 1.16 1.12 1.10 1.13 1.13 1.11 1.07 1.05 1.04 1.05 1.16 1.19 1.20 1.17 1.16 1.15 1.23 1.22 1.26
0.24 0.30 0.32 0.31 0.33 0.34 0.31 0.20 0.21 0.20 0.20 0.19 0.18 0.18 0.15 0.14 0.12 0.10 0.11 0.12 0.12 0.13 0.14 0.14 0.16 0.11 0.13 0.18 0.22 0.25 0.33 0.37 0.44 0.52 0.54 0.58 0.65 0.85 1.00 0.95 0.87 0.89 0.94 0.98 1.03 1.11 1.20 1.24 1.29 1.33 1.34 1.33 1.28 1.23 1.21 1.13 1.06 1.08 1.08 1.08 1.05 1.05 1.12 1.13 1.15 1.15 1.13 1.13 1.12 1.14 1.14 1.13 1.11 1.06 1.05 1.06 1.06 1.11 1.19 1.23 1.18 1.16 1.14 1.15 1.16 1.18
0.20 0.21 0.26 0.29 0.26 0.34 0.30 0.25 0.22 0.22 0.21 0.21 0.21 0.21 0.17 0.16 0.13 0.10 0.11 0.10 0.10 0.14 0.17 0.15 0.14 0.12 0.11 0.13 0.21 0.24 0.26 0.33 0.38 0.44 0.52 0.55 0.60 0.73 0.98 0.97 0.89 0.88 0.90 0.96 1.01 1.02 1.10 1.18 1.24 1.29 1.34 1.35 1.33 1.30 1.30 1.24 1.13 1.06 1.03 1.04 1.01 1.03 1.09 1.10 1.08 1.09 1.08 1.11 1.15 1.18 1.16 1.13 1.13 1.10 1.08 1.08 1.09 1.11 1.14 1.20 1.20 1.19 1.18 1.16 1.19 1.18
0.23 0.23 0.26 0.31 0.31 0.33 0.28 0.27 0.26 0.25 0.23 0.23 0.23 0.23 0.20 0.16 0.20 0.16 0.17 0.15 0.16 0.15 0.14 0.16 0.12 0.13 0.14 0.19 0.29 0.23 0.22 0.24 0.32 0.39 0.43 0.49 0.56 0.67 0.88 0.86 0.85 0.89 0.89 0.91 0.99 1.02 1.05 1.18 1.25 1.30 1.35 1.39 1.39 1.36 1.34 1.31 1.26 1.12 1.03 1.00 0.98 0.97 1.02 1.04 1.05 1.05 1.07 1.11 1.17 1.16 1.10 1.08 1.12 1.14 1.13 1.11 1.13 1.13 1.15 1.18 1.19 1.20 1.19 1.18 1.23 1.28
0.26 0.23 0.30 0.29 0.32 0.32 0.31 0.29 0.24 0.26 0.19 0.22 0.21 0.17 0.17 0.21 0.20 0.21 0.24 0.25 0.22 0.18 0.16 0.20 0.17 0.16 0.18 0.18 0.20 0.23 0.23 0.23 0.25 0.33 0.39 0.45 0.51 0.57 0.80 0.88 0.80 0.85 0.86 0.88 0.96 0.99 1.01 1.13 1.22 1.25 1.28 1.33 1.39 1.38 1.33 1.31 1.29 1.22 1.11 1.03 0.98 0.99 1.03 1.04 1.03 1.03 1.09 1.12 1.09 1.07 1.07 1.08 1.10 1.12 1.08 1.05 1.07 1.10 1.15 1.18 1.19 1.19 1.22 1.22 1.20 1.26
0.27 0.26 0.31 0.27 0.26 0.31 0.35 0.32 0.27 0.26 0.28 0.26 0.18 0.18 0.22 0.24 0.22 0.20 0.16 0.21 0.18 0.16 0.16 0.18 0.16 0.17 0.16 0.13 0.20 0.23 0.20 0.18 0.22 0.26 0.29 0.40 0.46 0.50 0.61 0.81 0.84 0.88 0.84 0.87 0.94 1.00 1.03 1.05 1.09 1.17 1.24 1.28 1.31 1.32 1.32 1.32 1.35 1.34 1.25 1.11 0.98 0.97 0.96 1.00 1.02 1.04 1.06 1.05 1.02 1.01 1.04 1.08 1.08 1.08 1.10 1.10 1.11 1.16 1.16 1.16 1.17 1.20 1.20 1.19 1.21 1.21
0.35 0.28 0.30 0.29 0.28 0.32 0.36 0.33 0.27 0.26 0.28 0.26 0.23 0.25 0.18 0.15 0.14 0.18 0.17 0.14 0.15 0.14 0.14 0.17 0.19 0.18 0.20 0.19 0.20 0.18 0.19 0.18 0.20 0.23 0.25 0.31 0.37 0.40 0.46 0.60 0.80 0.81 0.80 0.83 0.90 0.99 1.01 1.01 1.03 1.06 1.10 1.19 1.25 1.31 1.33 1.37 1.43 1.41 1.36 1.27 1.08 0.93 0.93 0.95 0.99 1.01 1.03 1.02 1.01 1.01 1.01 1.03 1.05 1.09 1.11 1.13 1.15 1.22 1.18 1.14 1.16 1.15 1.16 1.22 1.25 1.24
0.37 0.29 0.31 0.33 0.30 0.33 0.34 0.31 0.21 0.21 0.25 0.28 0.30 0.26 0.23 0.20 0.17 0.15 0.16 0.17 0.17 0.16 0.15 0.13 0.15 0.14 0.18 0.19 0.22 0.23 0.21 0.21 0.21 0.25 0.27 0.29 0.35 0.41 0.49 0.54 0.70 0.81 0.79 0.79 0.89 0.97 0.98 0.98 1.01 1.05 1.06 1.13 1.24 1.34 1.37 1.40 1.43 1.40 1.40 1.34 1.24 1.10 1.01 1.00 0.99 1.00 0.97 0.97 0.98 0.98 1.04 1.05 1.06 1.07 1.09 1.11 1.14 1.17 1.17 1.15 1.16 1.18 1.16 1.17 1.24 1.25
0.39 0.37 0.30 0.32 0.34 0.34 0.26 0.27 0.22 0.21 0.19 0.21 0.23 0.24 0.23 0.19 0.22 0.20 0.20 0.15 0.16 0.15 0.16 0.17 0.16 0.18 0.18 0.18 0.17 0.22 0.27 0.24 0.23 0.23 0.25 0.27 0.33 0.42 0.52 0.58 0.69 0.81 0.79 0.77 0.84 0.96 0.97 0.99 1.02 1.08 1.11 1.14 1.23 1.35 1.43 1.41 1.35 1.36 1.41 1.36 1.31 1.20 1.07 0.99 0.97 0.97 0.94 0.98 0.98 0.96 0.97 1.00 1.04 1.06 1.10 1.12 1.16 1.16 1.20 1.22 1.20 1.21 1.21 1.24 1.22 1.24
0.39 0.37 0.31 0.33 0.32 0.29 0.27 0.29 0.27 0.24 0.23 0.21 0.21 0.22 0.23 0.19 0.17 0.15 0.15 0.21 0.17 0.16 0.15 0.16 0.18 0.24 0.29 0.28 0.27 0.24 0.26 0.29 0.27 0.26 0.28 0.28 0.28 0.32 0.43 0.57 0.68 0.77 0.79 0.78 0.82 0.93 0.99 1.03 1.05 1.10 1.18 1.19 1.20 1.24 1.28 1.37 1.41 1.39 1.35 1.35 1.33 1.27 1.15 1.04 0.99 0.97 0.98 1.00 0.99 0.97 0.98 1.01 1.06 1.09 1.11 1.13 1.16 1.19 1.21 1.23 1.23 1.22 1.26 1.25 1.26 1.25
0.45 0.46 0.37 0.34 0.33 0.30 0.31 0.33 0.33 0.29 0.26 0.25 0.23 0.22 0.25 0.24 0.21 0.19 0.15 0.19 0.20 0.17 0.17 0.18 0.18 0.22 0.30 0.30 0.28 0.26 0.25 0.25 0.29 0.28 0.29 0.31 0.30 0.32 0.37 0.47 0.60 0.72 0.77 0.78 0.80 0.87 1.01 1.10 1.10 1.12 1.14 1.12 1.12 1.20 1.29 1.36 1.39 1.37 1.35 1.38 1.38 1.28 1.20 1.12 1.03 1.01 1.02 1.00 1.00 1.00 1.03 1.05 1.09 1.12 1.12 1.12 1.15 1.17 1.19 1.22 1.24 1.27 1.23 1.24 1.28 1.31
0.50 0.42 0.37 0.36 0.37 0.37 0.36 0.36 0.35 0.31 0.28 0.26 0.26 0.25 0.24 0.22 0.22 0.21 0.22 0.24 0.22 0.20 0.15 0.16 0.15 0.22 0.30 0.30 0.27 0.23 0.23 0.21 0.23 0.24 0.25 0.30 0.35 0.35 0.37 0.43 0.54 0.64 0.71 0.80 0.85 0.87 0.98 1.14 1.17 1.16 1.14 1.11 1.11 1.16 1.21 1.25 1.32 1.38 1.40 1.39 1.38 1.32 1.30 1.25 1.18 1.12 1.06 1.02 1.01 1.03 1.06 1.08 1.12 1.12 1.13 1.11 1.11 1.12 1.15 1.20 1.24 1.28 1.24 1.23 1.25 1.31
0.38 0.39 0.40 0.35 0.33 0.31 0.31 0.33 0.32 0.32 0.29 0.26 0.25 0.25 0.24 0.25 0.25 0.25 0.27 0.29 0.24 0.24 0.20 0.15 0.14 0.17 0.31 0.31 0.30 0.28 0.22 0.20 0.19 0.21 0.22 0.27 0.34 0.39 0.41 0.47 0.60 0.73 0.82 0.89 0.94 0.94 0.99 1.09 1.12 1.07 1.01 1.03 1.05 1.10 1.17 1.21 1.24 1.31 1.34 1.36 1.35 1.35 1.41 1.40 1.36 1.27 1.16 1.05 1.01 1.05 1.08 1.10 1.13 1.14 1.14 1.12 1.13 1.12 1.16 1.19 1.24 1.29 1.26 1.23 1.19 1.22
0.42 0.39 0.38 0.32 0.27 0.24 0.22 0.22 0.23 0.25 0.24 0.26 0.28 0.28 0.27 0.24 0.24 0.24 0.22 0.24 0.20 0.26 0.25 0.20 0.18 0.27 0.32 0.31 0.30 0.26 0.23 0.21 0.22 0.22 0.21 0.28 0.35 0.43 0.54 0.64 0.78 0.77 0.77 0.76 0.79 0.85 0.90 0.97 1.01 0.96 0.95 1.01 1.06 1.08 1.12 1.18 1.21 1.24 1.32 1.35 1.38 1.40 1.44 1.46 1.43 1.38 1.32 1.18 1.07 1.05 1.08 1.12 1.15 1.16 1.17 1.16 1.14 1.15 1.17 1.20 1.22 1.28 1.32 1.28 1.20 1.20
0.44 0.45 0.40 0.37 0.34 0.31 0.33 0.43 0.35 0.34 0.30 0.25 0.26 0.28 0.27 0.26 0.26 0.27 0.26 0.22 0.20 0.22 0.23 0.26 0.25 0.31 0.27 0.29 0.26 0.25 0.25 0.22 0.23 0.24 0.24 0.29 0.36 0.49 0.64 0.62 0.55 0.58 0.65 0.72 0.78 0.82 0.85 0.88 0.94 0.98 0.99 1.04 1.09 1.10 1.13 1.16 1.21 1.23 1.25 1.31 1.40 1.46 1.46 1.47 1.47 1.46 1.43 1.35 1.21 1.13 1.12 1.15 1.17 1.18 1.22 1.21 1.19 1.20 1.23 1.21 1.22 1.23 1.30 1.37 1.30 1.26
0.45 0.41 0.43 0.40 0.41 0.49 0.52 0.47 0.43 0.38 0.31 0.29 0.27 0.28 0.29 0.28 0.25 0.25 0.24 0.21 0.27 0.23 0.18 0.25 0.27 0.30 0.32 0.30 0.29 0.25 0.25 0.26 0.23 0.27 0.29 0.38 0.42 0.56 0.52 0.40 0.43 0.53 0.67 0.70 0.74 0.76 0.74 0.79 0.86 0.95 1.00 1.01 1.04 1.05 1.06 1.11 1.16 1.22 1.26 1.29 1.37 1.44 1.49 1.51 1.49 1.49 1.49 1.49 1.41 1.30 1.22 1.23 1.26 1.28 1.27 1.31 1.31 1.27 1.28 1.29 1.27 1.28 1.32 1.43 1.42 1.34
0.47 0.40 0.45 0.46 0.40 0.44 0.56 0.48 0.43 0.39 0.37 0.33 0.30 0.29 0.28 0.29 0.26 0.23 0.24 0.27 0.28 0.23 0.21 0.27 0.30 0.27 0.34 0.32 0.30 0.28 0.30 0.30 0.30 0.31 0.37 0.44 0.38 0.40 0.39 0.39 0.41 0.55 0.60 0.57 0.62 0.69 0.71 0.71 0.74 0.82 0.91 0.95 1.00 1.03 1.02 1.05 1.11 1.20 1.26 1.31 1.37 1.40 1.46 1.54 1.54 1.52 1.52 1.53 1.49 1.45 1.41 1.37 1.37 1.39 1.38 1.39 1.43 1.41 1.36 1.36 1.38 1.41 1.42 1.46 1.50 1.50
0.45 0.39 0.43 0.44 0.45 0.48 0.49 0.50 0.47 0.39 0.38 0.38 0.35 0.29 0.29 0.30 0.28 0.26 0.26 0.28 0.28 0.28 0.29 0.35 0.36 0.29 0.31 0.34 0.32 0.32 0.32 0.30 0.31 0.34 0.37 0.37 0.30 0.36 0.37 0.33 0.35 0.49 0.47 0.52 0.55 0.61 0.67 0.70 0.73 0.75 0.83 0.86 0.87 0.93 0.98 1.00 1.04 1.13 1.21 1.28 1.35 1.36 1.40 1.50 1.52 1.53 1.54 1.54 1.53 1.56 1.57 1.53 1.47 1.45 1.48 1.47 1.43 1.47 1.47 1.44 1.43 1.47 1.45 1.50 1.54 1.57
0.42 0.38 0.44 0.46 0.42 0.42 0.45 0.45 0.47 0.41 0.39 0.37 0.35 0.32 0.31 0.31 0.30 0.30 0.28 0.28 0.30 0.29 0.31 0.31 0.36 0.36 0.36 0.34 0.36 0.37 0.37 0.34 0.35 0.34 0.34 0.33 0.34 0.36 0.36 0.35 0.37 0.41 0.52 0.68 0.58 0.64 0.69 0.69 0.73 0.74 0.74 0.77 0.80 0.81 0.85 0.90 0.95 1.02 1.11 1.21 1.27 1.31 1.35 1.41 1.46 1.50 1.52 1.54 1.60 1.62 1.62 1.60 1.54 1.52 1.50 1.49 1.48 1.52 1.52 1.50 1.49 1.49 1.51 1.52 1.55 1.58
0.43 0.42 0.43 0.43 0.38 0.36 0.40 0.40 0.43 0.44 0.40 0.36 0.35 0.34 0.33 0.29 0.27 0.29 0.29 0.30 0.29 0.27 0.29 0.29 0.29 0.33 0.42 0.41 0.39 0.41 0.41 0.39 0.35 0.34 0.34 0.36 0.38 0.35 0.34 0.35 0.36 0.39 0.43 0.45 0.67 0.80 0.86 0.78 0.70 0.70 0.67 0.71 0.74 0.75 0.78 0.83 0.91 0.94 0.95 1.08 1.16 1.27 1.32 1.31 1.35 1.39 1.44 1.53 1.62 1.63 1.61 1.61 1.60 1.55 1.52 1.54 1.51 1.51 1.55 1.56 1.52 1.51 1.52 1.53 1.54 1.56
0.44 0.41 0.38 0.37 0.33 0.34 0.36 0.38 0.38 0.41 0.40 0.34 0.33 0.35 0.36 0.35 0.33 0.32 0.32 0.33 0.32 0.33 0.30 0.27 0.29 0.37 0.41 0.44 0.39 0.38 0.37 0.37 0.36 0.35 0.35 0.35 0.34 0.34 0.36 0.38 0.39 0.40 0.42 0.45 0.47 0.50 0.49 0.53 0.83 0.78 0.69 0.73 0.80 0.80 0.78 0.78 0.81 0.84 0.89 0.96 1.10 1.20 1.23 1.22 1.24 1.32 1.38 1.47 1.54 1.56 1.58 1.60 1.59 1.56 1.54 1.53 1.53 1.57 1.59 1.57 1.54 1.52 1.51 1.50 1.53 1.57
0.43 0.40 0.38 0.40 0.32 0.32 0.36 0.36 0.36 0.34 0.28 0.28 0.39 0.42 0.40 0.35 0.36 0.34 0.34 0.35 0.37 0.37 0.35 0.39 0.41 0.43 0.43 0.43 0.40 0.38 0.37 0.38 0.37 0.39 0.38 0.35 0.34 0.32 0.30 0.31 0.34 0.38 0.41 0.43 0.45 0.47 0.50 0.63 0.78 0.69 0.74 0.71 0.66 0.76 0.86 0.84 0.78 0.81 0.91 0.94 1.03 1.09 1.15 1.19 1.21 1.26 1.30 1.37 1.42 1.48 1.54 1.56 1.54 1.53 1.53 1.56 1.56 1.56 1.55 1.54 1.50 1.49 1.53 1.55 1.58 1.54
0.41 0.41 0.39 0.41 0.36 0.33 0.37 0.36 0.30 0.23 0.24 0.36 0.45 0.46 0.44 0.41 0.39 0.36 0.34 0.35 0.35 0.35 0.34 0.33 0.35 0.37 0.40 0.42 0.43 0.42 0.40 0.41 0.43 0.42 0.39 0.35 0.34 0.32 0.32 0.32 0.36 0.44 0.48 0.48 0.46 0.45 0.51 0.60 0.75 0.73 0.65 0.59 0.63 0.70 0.74 0.80 0.83 0.87 0.90 0.92 0.95 1.04 1.10 1.16 1.18 1.22 1.28 1.30 1.35 1.42 1.47 1.50 1.49 1.49 1.52 1.54 1.53 1.50 1.48 1.47 1.49 1.52 1.53 1.53 1.52 1.50
0.38 0.39 0.39 0.37 0.38 0.39 0.36 0.34 0.24 0.25 0.36 0.39 0.43 0.48 0.52 0.45 0.42 0.39 0.35 0.36 0.36 0.36 0.35 0.33 0.34 0.35 0.37 0.40 0.43 0.46 0.47 0.46 0.44 0.41 0.37 0.35 0.34 0.34 0.35 0.37 0.36 0.35 0.34 0.36 0.40 0.71 0.64 0.69 0.74 0.73 0.78 0.84 0.76 0.72 0.71 0.74 0.84 0.82 0.83 0.91 0.92 0.97 1.06 1.13 1.16 1.18 1.25 1.29 1.31 1.34 1.40 1.45 1.47 1.49 1.51 1.49 1.50 1.46 1.43 1.43 1.46 1.46 1.53 1.54 1.56 1.60
0.41 0.40 0.39 0.34 0.38 0.32 0.34 0.33 0.31 0.41 0.39 0.40 0.41 0.46 0.50 0.42 0.40 0.36 0.31 0.34 0.38 0.39 0.38 0.37 0.38 0.38 0.38 0.39 0.40 0.41 0.41 0.39 0.36 0.36 0.36 0.33 0.33 0.37 0.40 0.39 0.38 0.38 0.37 0.44 0.65 0.73 0.75 0.69 0.65 0.66 0.67 0.68 0.66 0.63 0.66 0.72 0.77 0.80 0.84 0.89 0.92 0.99 1.03 1.06 1.10 1.14 1.19 1.25 1.31 1.36 1.41 1.43 1.45 1.45 1.45 1.46 1.44 1.42 1.42 1.43 1.46 1.51 1.57 1.53 1.53 1.55
0.40 0.37 0.38 0.34 0.34 0.36 0.33 0.31 0.32 0.31 0.28 0.35 0.41 0.58 0.65 0.62 0.52 0.50 0.39 0.38 0.45 0.44 0.44 0.43 0.43 0.49 0.49 0.50 0.50 0.51 0.67 0.54 0.44 0.43 0.46 0.44 0.44 0.43 0.41 0.37 0.38 0.41 0.48 0.65 0.68 0.61 0.66 0.72 0.75 0.78 0.75 0.69 0.69 0.71 0.70 0.71 0.74 0.80 0.82 0.89 0.96 1.00 1.03 1.00 1.04 1.13 1.20 1.26 1.33 1.38 1.42 1.43 1.43 1.40 1.42 1.45 1.42 1.41 1.45 1.51 1.55 1.58 1.64 1.57 1.56 1.57
0.37 0.39 0.39 0.35 0.33 0.34 0.32 0.30 0.29 0.28 0.32 0.40 0.43 0.55 0.65 0.72 0.63 0.65 0.47 0.38 0.60 0.55 0.61 0.56 0.54 0.59 0.57 0.56 0.63 0.79 0.62 0.44 0.39 0.38 0.51 0.77 0.78 0.88 1.03 0.57 0.56 0.86 0.92 0.76 0.65 0.64 0.69 0.78 0.75 0.70 0.66 0.69 0.69 0.75 0.74 0.70 0.73 0.78 0.81 0.90 0.99 1.03 1.00 0.98 1.03 1.13 1.18 1.27 1.37 1.43 1.45 1.47 1.47 1.46 1.46 1.44 1.46 1.51 1.51 1.52 1.56 1.63 1.69 1.66 1.65 1.63
0.32 0.34 0.33 0.31 0.31 0.32 0.31 0.29 0.28 0.32 0.34 0.44 0.54 0.61 0.64 0.67 0.65 0.56 0.32 0.33 0.70 0.77 0.72 0.69 0.63 0.68 0.80 0.89 0.84 0.69 0.50 0.36 0.35 0.41 0.98 0.98 0.94 1.01 1.05 0.92 0.90 0.83 0.82 0.77 0.82 0.79 0.77 0.80 0.74 0.75 0.76 0.77 0.79 0.82 0.80 0.74 0.74 0.77 0.85 0.94 1.04 1.03 1.01 1.02 1.09 1.21 1.29 1.36 1.41 1.45 1.46 1.48 1.47 1.48 1.46 1.46 1.51 1.54 1.54 1.58 1.61 1.62 1.61 1.62 1.64 1.66
0.28 0.30 0.31 0.27 0.28 0.30 0.31 0.30 0.32 0.35 0.43 0.47 0.62 0.71 0.68 0.64 0.55 0.41 0.31 0.52 0.79 0.78 0.82 0.74 0.74 0.80 0.80 0.76 0.71 0.55 0.65 0.63 0.71 0.96 0.98 1.00 0.94 1.06 1.06 1.04 0.97 0.85 0.76 0.73 0.78 0.75 0.80 0.91 0.89 0.83 0.82 0.87 0.90 0.91 0.89 0.83 0.76 0.77 0.87 0.97 1.04 1.05 1.10 1.18 1.21 1.25 1.32 1.37 1.39 1.41 1.44 1.46 1.45 1.43 1.46 1.50 1.52 1.55 1.57 1.58 1.58 1.60 1.60 1.61 1.68 1.71
0.27 0.28 0.30 0.29 0.27 0.27 0.29 0.29 0.29 0.32 0.40 0.45 0.60 0.73 0.73 0.55 0.40 0.40 0.76 0.89 0.85 0.82 0.81 0.76 0.79 0.82 0.76 0.76 0.70 0.72 0.75 0.82 0.78 0.80 0.83 0.91 1.04 0.95 0.95 0.93 0.94 0.92 0.91 0.92 0.85 0.81 0.90 0.96 0.94 0.93 0.91 0.88 0.90 0.84 0.87 0.90 0.83 0.84 0.90 0.98 1.01 1.09 1.20 1.25 1.27 1.28 1.34 1.38 1.39 1.40 1.42 1.43 1.47 1.50 1.50 1.54 1.56 1.55 1.55 1.61 1.63 1.64 1.65 1.66 1.66 1.65
0.27 0.25 0.26 0.26 0.27 0.27 0.28 0.26 0.27 0.25 0.37 0.44 0.46 0.50 0.62 0.46 0.61 0.77 0.87 0.96 0.90 0.86 0.85 0.84 0.80 0.87 0.78 0.73 0.77 0.75 0.72 0.72 0.73 0.77 0.82 0.84 0.85 0.88 0.92 0.95 0.90 0.85 0.83 0.78 0.95 0.99 0.95 0.99 0.95 0.94 0.96 1.06 1.12 1.01 0.98 0.95 0.91 0.95 1.00 1.02 1.10 1.19 1.21 1.23 1.27 1.28 1.29 1.34 1.38 1.41 1.44 1.47 1.49 1.51 1.55 1.57 1.61 1.61 1.60 1.64 1.64 1.65 1.66 1.64 1.63 1.64
0.46 0.31 0.26 0.28 0.31 0.25 0.24 0.24 0.26 0.35 0.53 0.54 0.50 0.42 0.69 0.73 0.81 0.86 0.83 0.80 0.89 0.91 0.94 0.80 0.89 0.95 0.88 0.77 0.77 0.75 0.75 0.73 0.76 0.83 0.89 0.90 0.87 0.86 0.91 0.98 0.98 0.93 0.94 0.94 0.96 0.99 1.01 0.99 1.00 1.01 1.02 1.07 1.14 1.16 1.07 1.04 0.98 1.02 1.03 1.07 1.25 1.26 1.26 1.26 1.30 1.34 1.34 1.35 1.36 1.38 1.42 1.48 1.51 1.55 1.58 1.61 1.63 1.64 1.64 1.66 1.68 1.67 1.67 1.68 1.66 1.61
0.41 0.38 0.44 0.36 0.39 0.33 0.27 0.28 0.49 0.54 0.59 0.63 0.60 0.66 0.74 0.71 0.76 0.88 0.87 0.87 0.84 0.88 1.01 0.90 0.87 0.88 0.85 0.85 0.80 0.81 0.77 0.83 0.82 0.87 0.86 0.84 0.85 0.88 0.94 1.00 1.00 0.99 1.00 0.98 0.95 0.98 1.06 1.04 1.02 1.03 1.04 1.05 1.11 1.18 1.23 1.25 1.17 1.12 1.10 1.19 1.28 1.33 1.37 1.40 1.41 1.37 1.32 1.34 1.36 1.38 1.41 1.47 1.53 1.58 1.62 1.67 1.67 1.64 1.64 1.65 1.70 1.68 1.69 1.66 1.65 1.62
0.49 0.47 0.52 0.44 0.42 0.50 0.49 0.50 0.56 0.53 0.56 0.60 0.64 0.66 0.66 0.70 0.70 0.75 0.85 0.86 0.93 0.94 0.94 0.88 0.89 0.88 0.83 0.84 0.79 0.78 0.82 0.81 0.84 0.88 0.90 0.91 0.94 0.99 1.01 1.00 0.99 1.02 1.04 1.02 0.99 1.00 1.04 1.07 1.06 1.06 1.04 1.05 1.10 1.12 1.17 1.20 1.20 1.10 1.11 1.22 1.26 1.31 1.40 1.42 1.38 1.34 1.37 1.39 1.39 1.41 1.46 1.48 1.54 1.62 1.66 1.67 1.69 1.67 1.66 1.62 1.66 1.63 1.63 1.64 1.62 1.62
0.40 0.45 0.44 0.39 0.44 0.39 0.32 0.45 0.48 0.51 0.56 0.60 0.61 0.63 0.63 0.63 0.67 0.70 0.76 0.87 0.88 0.90 0.90 0.89 0.87 0.81 0.80 0.80 0.78 0.78 0.78 0.86 0.84 0.89 0.92 0.95 0.98 1.00 1.00 0.98 1.03 1.07 1.08 1.04 1.03 1.03 1.05 1.06 1.05 1.05 1.06 1.04 1.11 1.12 1.14 1.15 1.17 1.20 1.23 1.23 1.26 1.34 1.39 1.40 1.39 1.34 1.36 1.39 1.42 1.46 1.49 1.49 1.53 1.57 1.63 1.65 1.67 1.68 1.68 1.70 1.69 1.66 1.63 1.61 1.59 1.57
0.34 0.44 0.38 0.39 0.41 0.40 0.39 0.43 0.46 0.52 0.55 0.56 0.56 0.53 0.54 0.56 0.58 0.70 0.79 0.80 0.82 0.84 0.89 0.92 0.91 0.86 0.86 0.80 0.82 0.77 0.77 0.84 0.86 0.88 0.90 0.92 0.96 0.99 1.00 1.00 1.02 1.06 1.10 1.11 1.08 1.09 1.11 1.09 1.07 1.06 1.06 1.06 1.10 1.13 1.14 1.16 1.16 1.20 1.23 1.29 1.35 1.36 1.38 1.38 1.40 1.39 1.40 1.43 1.47 1.50 1.53 1.53 1.56 1.59 1.62 1.64 1.64 1.67 1.70 1.74 1.73 1.66 1.64 1.63 1.61 1.58
0.44 0.50 0.34 0.38 0.35 0.38 0.44 0.46 0.46 0.46 0.46 0.49 0.52 0.52 0.50 0.53 0.65 0.64 0.66 0.69 0.75 0.77 0.77 0.81 0.90 0.88 0.85 0.83 0.83 0.80 0.77 0.84 0.89 0.92 0.91 0.94 0.98 1.00 1.01 1.05 1.07 1.10 1.13 1.10 1.12 1.13 1.13 1.11 1.09 1.09 1.08 1.08 1.14 1.15 1.15 1.15 1.18 1.21 1.23 1.25 1.31 1.36 1.34 1.34 1.37 1.43 1.46 1.51 1.53 1.50 1.53 1.54 1.53 1.56 1.61 1.56 1.58 1.72 1.72 1.70 1.74 1.75 1.71 1.68 1.69 1.66
0.41 0.36 0.41 0.39 0.33 0.31 0.32 0.35 0.41 0.35 0.34 0.38 0.42 0.45 0.55 0.66 0.59 0.58 0.59 0.64 0.69 0.72 0.77 0.78 0.83 0.92 0.91 0.87 0.82 0.80 0.79 0.84 0.90 0.95 0.96 1.00 1.01 1.03 1.04 1.05 1.07 1.10 1.12 1.15 1.15 1.17 1.14 1.13 1.12 1.11 1.10 1.11 1.16 1.15 1.14 1.16 1.17 1.21 1.21 1.24 1.25 1.26 1.20 1.21 1.21 1.20 1.25 1.32 1.36 1.42 1.43 1.46 1.46 1.50 1.53 1.55 1.55 1.50 1.47 1.52 1.57 1.58 1.52 1.46 1.53 1.55
0.35 0.36 0.37 0.33 0.32 0.30 0.35 0.39 0.42 0.42 0.43 0.47 0.53 0.58 0.58 0.61 0.59 0.53 0.56 0.60 0.63 0.71 0.77 0.76 0.77 0.84 0.90 0.91 0.90 0.82 0.81 0.82 0.87 0.97 0.99 1.03 1.06 1.09 1.11 1.13 1.13 1.12 1.12 1.17 1.16 1.16 1.15 1.14 1.15 1.13 1.13 1.14 1.16 1.14 1.13 1.12 1.15 1.17 1.20 1.20 1.21 1.19 1.17 1.15 1.11 1.10 1.12 1.14 1.18 1.23 1.25 1.25 1.29 1.31 1.39 1.38 1.40 1.39 1.38 1.28 1.31 1.35 1.38 1.34 1.35 1.38
Wind_Speed
22 22 25 26 26 27 28 28 27 26 24 23 22 21 22 22 20 19 19 18 17 19 21 21 21 19 18 18 17 16 16 16 15 14 14 15 14 14 13 13 14 15 15 14 16 17 19 20 20 20 21 22 23 23 24 24 24 24 24 23 22 21 21 21 19 18 17 17 16 15 14 14 13 13 12 12 11 11 11 11 11 10 10 9 9 8
23 23 25 26 27 27 28 28 28 28 27 25 23 22 22 23 22 20 20 20 17 17 19 20 21 20 19 18 17 16 16 17 17 15 15 16 15 14 14 14 14 15 15 15 15 18 19 20 21 21 22 23 24 23 24 25 25 25 25 24 23 22 22 21 20 19 18 17 16 16 15 14 13 13 13 12 12 11 11 11 11 11 10 10 9 8
23 23 24 25 26 27 27 28 29 29 29 27 23 22 22 21 21 22 22 22 19 17 18 20 21 20 20 20 19 18 17 17 18 18 16 16 16 14 13 14 15 17 16 15 16 18 20 21 21 21 22 23 24 24 25 25 26 26 25 24 24 23 22 22 21 20 19 18 17 16 15 15 14 13 13 13 12 12 11 11 12 11 11 10 10 9
21 22 24 25 25 27 27 27 28 28 28 27 25 24 23 22 21 21 21 22 21 19 18 21 21 21 20 21 21 21 20 18 19 20 18 16 17 15 14 14 15 18 18 16 16 18 20 21 21 21 22 23 24 25 25 25 26 26 25 25 25 24 23 22 22 21 19 19 18 17 16 15 14 14 14 13 13 13 12 12 12 12 11 11 10 9
22 20 22 26 25 26 27 27 27 27 26 28 28 26 25 24 23 22 21 21 22 22 21 21 21 21 21 21 21 21 21 20 20 21 20 18 17 17 16 16 16 17 18 18 17 19 20 21 22 22 22 23 24 25 26 26 26 26 26 26 25 24 24 23 22 21 20 19 18 17 16 16 15 14 14 14 14 13 13 13 12 12 12 12 11 10
24 21 21 25 26 26 27 26 26 26 24 26 29 29 26 26 25 24 22 21 21 22 22 22 22 21 22 23 22 21 22 22 22 22 22 20 19 18 17 17 17 17 18 18 18 19 20 21 22 22 22 23 24 25 26 26 27 27 27 27 26 25 24 24 23 22 21 20 19 18 18 17 17 16 15 15 14 14 13 13 12 12 12 12 11 11
24 24 22 23 25 26 26 25 26 26 23 23 26 28 29 28 26 25 25 23 21 20 19 21 22 21 21 23 23 23 23 24 23 23 23 22 20 20 18 17 17 16 17 19 19 19 21 21 22 23 23 23 24 25 26 26 27 27 27 27 27 26 25 24 24 23 22 21 20 19 19 18 17 17 16 15 14 13 13 12 12 12 12 12 12 11
25 26 25 23 25 25 25 24 25 26 24 22 22 24 28 30 29 27 25 24 22 21 20 22 23 21 21 22 21 23 25 25 23 23 23 23 22 21 19 17 17 17 17 19 19 20 21 22 22 23 23 24 24 25 25 26 27 27 28 27 27 27 26 25 25 24 23 22 21 20 20 19 18 17 16 15 14 13 13 13 13 12 12 12 12 12
25 28 27 25 25 24 24 23 23 25 24 22 20 21 23 26 29 28 26 25 23 22 23 24 24 21 21 20 20 21 23 24 23 22 23 24 23 22 20 18 18 18 18 19 19 20 21 22 22 23 24 24 24 25 25 26 27 27 28 28 28 27 26 26 25 25 24 23 22 21 20 20 19 18 16 15 15 15 14 14 14 13 13 13 12 12
24 28 28 26 25 24 24 24 23 24 23 21 21 21 20 21 23 25 26 25 24 25 26 26 25 22 19 20 22 23 23 23 22 22 24 25 24 23 21 19 19 17 18 19 19 20 21 22 23 23 23 24 24 24 25 26 26 27 27 28 28 28 27 27 26 26 25 24 23 22 21 21 20 19 17 16 16 16 15 15 15 14 14 13 13 13
25 26 28 27 26 24 23 23 24 24 23 22 22 20 19 19 19 21 23 24 24 26 27 27 27 25 21 20 22 24 24 23 22 21 23 25 25 24 22 20 19 18 18 19 20 21 21 22 23 23 23 24 24 24 25 25 26 27 27 28 29 28 28 27 27 27 26 25 24 23 22 22 21 20 19 18 17 16 16 16 15 14 14 14 13 13
29 26 26 28 27 26 24 23 23 24 23 22 21 20 18 18 18 19 20 22 23 24 24 26 27 27 24 21 20 22 24 25 24 23 23 25 26 25 24 22 20 19 19 19 20 21 22 22 23 23 23 24 25 24 25 25 26 27 28 28 29 29 28 28 28 28 27 26 25 24 23 23 22 21 20 19 18 17 17 16 16 15 14 14 14 14
31 29 27 27 28 28 26 23 22 23 24 23 22 21 19 17 18 18 19 20 22 21 21 23 25 27 25 22 21 22 23 24 24 23 24 26 27 27 26 24 21 21 20 19 20 21 22 23 23 23 24 24 25 25 25 25 26 26 27 29 29 29 29 28 28 28 27 27 26 25 24 23 23 22 21 21 20 19 18 17 17 16 15 15 14 14
30 30 30 28 28 30 29 25 23 23 24 25 23 22 20 18 17 18 18 18 19 19 20 22 24 25 24 21 23 26 24 23 23 23 24 26 27 28 27 24 22 22 21 20 20 21 22 23 23 23 24 24 25 25 25 26 26 26 27 28 29 29 29 29 28 28 28 27 27 26 25 24 23 23 22 21 21 20 19 18 18 17 16 16 16 15
30 30 33 32 28 30 32 28 25 23 24 25 24 22 22 20 18 16 17 17 17 16 19 23 23 21 20 18 20 24 25 24 23 23 24 25 26 26 26 25 23 22 22 21 20 21 22 24 24 24 24 24 25 25 26 26 26 26 27 28 29 29 29 29 28 28 28 28 27 26 26 25 24 23 23 22 21 21 20 19 18 18 17 17 16 16
32 30 32 34 30 30 33 31 27 24 23 25 24 24 23 22 19 16 16 17 17 16 17 21 21 19 18 17 17 19 23 25 24 23 23 24 26 26 26 26 25 23 23 22 21 21 22 23 24 24 24 24 24 25 26 26 26 27 27 28 29 29 29 29 29 29 29 28 27 27 26 26 25 24 23 23 22 21 21 20 20 19 18 18 17 17
31 29 29 34 33 32 33 32 30 27 23 23 26 26 24 22 21 18 17 16 16 16 16 17 18 17 16 17 17 18 20 24 26 25 24 24 26 26 25 26 27 25 23 22 21 22 22 23 24 24 25 24 24 25 26 27 27 27 27 27 28 29 28 29 29 29 29 28 28 27 27 26 26 25 24 23 23 22 22 21 21 20 20 19 18 18
28 28 29 34 35 33 32 32 33 31 25 23 26 26 23 22 22 20 17 16 16 15 15 16 17 17 16 16 17 19 21 22 25 27 26 25 26 27 26 26 27 26 24 23 22 22 22 23 23 24 24 25 25 26 26 27 27 27 27 27 28 28 29 29 29 29 29 28 27 27 27 26 26 26 25 24 23 23 22 22 21 21 21 20 20 19
27 26 27 33 35 31 31 32 32 33 31 26 24 24 24 23 23 22 19 17 16 15 14 16 17 17 17 15 15 18 21 22 23 25 26 27 27 27 27 27 28 27 25 23 23 22 23 23 23 23 24 25 26 26 27 27 27 27 27 27 27 28 28 29 29 29 28 28 27 26 27 26 26 25 25 24 24 23 23 23 22 22 21 21 21 20
28 26 24 30 34 31 29 32 32 33 34 30 25 25 26 24 22 22 21 18 16 14 13 14 16 16 17 17 17 17 18 20 22 22 24 25 25 26 27 27 27 27 25 24 23 22 23 24 24 24 24 24 25 26 27 27 27 27 27 27 28 28 28 28 28 28 28 28 27 27 27 26 26 26 25 25 24 24 24 23 23 22 22 21 21 21
28 27 24 25 32 33 31 33 34 33 34 32 29 27 27 25 22 22 22 20 18 15 13 12 12 12 13 16 18 17 16 18 21 22 22 24 24 25 26 26 27 27 25 24 24 23 23 24 24 24 23 24 24 25 26 27 28 28 27 27 28 28 28 28 28 28 27 27 27 27 27 27 26 26 26 25 25 25 24 24 23 23 22 22 22 22
28 28 27 24 29 33 33 33 34 34 34 33 31 28 27 26 24 22 21 21 20 17 14 12 11 8 7 10 14 16 16 16 18 20 21 22 24 25 25 26 26 26 25 25 24 23 24 24 23 23 23 23 24 25 26 27 27 28 28 28 28 28 28 28 27 27 27 27 27 27 27 27 26 26 26 26 26 26 25 25 24 23 23 22 22 22
29 26 28 26 27 31 32 32 33 34 34 33 32 30 27 26 26 24 21 19 20 19 16 14 12 8 6 8 10 12 14 15 16 18 19 20 22 24 25 26 26 26 25 25 25 24 23 23 23 23 22 22 23 24 26 26 27 27 28 27 28 28 28 28 27 27 27 27 27 27 27 27 27 27 27 27 26 26 26 25 25 24 23 23 23 23
32 29 29 27 24 27 30 31 32 33 34 33 34 33 30 29 27 25 22 19 19 19 18 16 14 11 8 8 10 10 12 14 15 17 18 19 20 21 23 24 25 26 25 25 25 24 24 23 23 22 21 22 22 23 25 26 26 26 27 27 27 28 29 28 28 27 27 27 27 27 27 27 27 27 27 27 27 27 27 26 25 24 24 24 23 23
35 35 33 28 24 25 27 29 31 34 34 33 33 34 33 32 30 27 23 21 20 20 20 18 15 13 11 10 11 13 13 14 15 16 18 19 18 19 21 21 21 22 24 24 24 24 24 24 24 23 22 22 23 23 24 25 25 26 26 27 27 27 28 28 28 28 27 27 28 28 27 27 27 27 28 27 27 27 27 26 25 24 24 24 24 24
34 36 36 32 29 26 27 28 30 33 34 32 33 35 35 35 33 29 25 23 22 20 20 19 15 13 12 11 11 12 12 13 14 15 17 19 18 17 17 18 19 20 22 24 24 24 24 24 24 24 23 22 23 23 24 24 25 25 25 26 27 27 27 28 27 28 28 28 28 28 28 27 27 27 28 27 27 27 26 26 25 24 24 24 24 24
32 34 37 38 34 26 23 24 26 30 33 34 34 35 35 36 34 31 27 26 23 21 20 20 17 13 13 14 12 11 12 13 13 13 15 18 18 15 15 16 18 20 21 22 23 23 24 24 24 23 23 23 23 23 23 24 24 25 25 26 26 26 27 27 27 27 28 28 28 28 28 28 27 27 27 27 27 26 26 25 25 24 23 23 23 24
32 34 37 39 38 30 22 21 23 27 32 35 36 36 35 36 36 34 31 27 24 22 21 21 20 17 12 12 13 12 13 13 14 13 14 15 16 15 15 16 17 19 19 20 21 22 23 23 23 22 22 23 23 24 23 23 23 24 25 25 26 26 27 27 27 28 28 28 28 28 28 28 27 27 27 27 26 26 26 25 24 24 23 22 22 23
32 35 36 38 39 35 28 25 25 27 29 30 33 37 36 36 37 37 33 29 25 23 21 20 23 22 15 12 13 14 13 13 13 13 12 14 15 14 14 15 16 18 20 20 21 22 22 23 23 22 23 23 24 24 23 23 22 23 24 25 26 27 26 26 27 27 28 28 28 28 28 28 28 27 27 27 26 26 25 25 24 24 23 22 21 21
32 33 33 34 38 37 34 30 28 28 28 27 29 34 36 35 36 35 34 31 28 25 22 19 21 24 21 16 14 15 14 14 13 11 11 13 14 12 13 15 15 17 20 20 21 21 22 22 22 23 23 23 24 24 24 23 22 23 23 25 26 26 26 26 26 27 27 28 28 28 29 29 28 28 27 27 27 26 26 25 25 24 24 23 22 21
30 30 29 31 34 37 37 34 31 29 29 28 28 30 33 35 35 34 33 32 29 27 25 22 20 20 21 20 18 16 15 15 15 14 14 14 14 13 14 16 16 17 18 19 20 21 21 22 22 22 23 23 24 24 24 24 23 23 23 24 25 26 26 26 25 26 27 27 28 29 29 29 29 29 28 28 27 27 26 26 25 25 24 24 23 22
29 29 30 32 33 35 37 37 34 31 29 31 31 30 31 33 33 32 31 31 30 28 27 26 23 19 19 20 20 19 18 17 16 16 16 16 16 16 16 16 16 18 18 17 18 19 20 21 22 22 22 23 24 25 24 24 24 24 24 24 24 25 26 26 25 25 26 27 28 28 29 29 30 29 29 28 28 28 27 27 26 26 25 25 25 24
29 29 29 32 33 33 35 37 36 32 31 33 35 33 32 31 30 29 28 28 28 27 25 24 22 19 17 19 20 20 20 19 18 16 16 16 16 17 18 17 17 19 19 18 18 18 19 20 21 21 22 22 24 25 25 25 25 25 24 24 24 24 25 26 25 24 25 27 28 28 29 29 30 30 29 29 29 28 28 27 27 27 27 27 26 25
30 31 28 28 30 31 31 33 34 34 34 33 32 33 34 33 31 30 29 28 28 27 25 23 21 20 19 19 20 20 20 19 19 17 16 16 17 18 19 20 19 19 19 18 18 19 19 19 19 20 21 22 23 24 24 25 25 25 25 24 24 24 25 25 25 24 24 26 27 28 28 29 30 30 30 29 29 29 29 28 28 28 28 28 27 27
30 32 30 27 28 29 29 29 32 35 35 32 29 31 35 36 35 34 32 30 30 29 29 27 25 23 22 20 20 19 19 19 18 18 17 17 17 18 19 19 20 20 20 20 19 19 19 19 19 19 20 22 23 23 23 24 24 24 25 25 24 24 25 25 25 24 23 24 26 27 28 28 29 29 29 29 29 29 29 29 29 29 28 28 28 28
31 31 31 29 28 28 29 31 31 29 29 29 28 28 30 33 35 36 35 34 33 31 29 29 29 27 25 24 22 21 20 20 19 19 19 19 19 19 19 19 20 21 21 21 20 19 18 19 19 20 20 21 22 22 22 23 24 24 25 25 24 24 24 25 25 25 23 23 25 26 26 27 28 29 29 29 29 30 30 29 29 29 28 28 28 28
33 31 30 31 31 30 30 31 31 27 26 29 29 27 27 30 32 33 33 33 33 32 30 28 27 27 26 25 24 23 22 22 21 20 20 20 20 20 21 21 21 21 21 20 19 18 19 20 20 21 21 22 23 23 23 23 23 24 25 25 24 24 24 24 25 25 24 23 24 24 25 26 27 28 28 29 29 29 29 28 28 28 28 28 28 28
35 33 31 31 32 32 31 32 32 30 29 30 30 28 27 27 28 30 30 29 29 31 31 29 26 25 25 24 23 21 20 20 19 17 17 18 19 19 20 22 22 21 19 18 18 19 19 19 20 20 21 22 23 23 23 23 23 24 24 25 25 24 24 24 25 26 25 24 23 23 23 24 25 26 27 27 27 27 27 27 27 28 28 28 28 28
37 35 33 32 32 33 34 33 33 31 28 27 28 29 29 27 25 27 29 28 27 27 28 29 28 27 26 25 24 23 22 21 19 17 17 17 17 15 16 17 18 17 16 17 18 18 19 19 20 20 20 21 21 22 22 23 23 23 24 25 25 25 25 25 25 26 26 25 24 23 23 23 24 24 25 25 25 26 26 27 27 27 27 28 28 29
37 36 35 35 34 34 35 34 33 30 25 23 25 28 28 27 26 27 28 27 25 25 25 26 27 26 26 26 26 26 25 24 22 19 17 18 17 15 14 14 15 16 16 17 17 18 19 19 20 20 19 19 20 20 21 22 22 22 24 25 25 25 25 25 24 25 26 26 24 24 23 23 24 24 24 25 25 25 26 26 26 27 27 28 28 28
36 36 36 37 36 35 36 35 33 32 27 24 24 25 25 27 28 27 26 25 24 24 24 25 25 24 24 25 25 26 25 25 23 22 20 19 18 17 17 17 17 17 17 17 18 19 20 19 19 19 19 19 20 21 21 21 21 21 22 24 25 25 24 23 23 24 25 26 25 25 24 24 24 24 25 25 25 25 26 26 26 27 27 27 27 27
35 35 36 37 36 36 36 35 34 33 30 28 27 26 26 27 27 25 24 24 24 23 23 24 25 24 24 24 24 25 25 24 24 23 23 22 21 19 19 18 18 18 18 18 18 19 19 19 18 19 18 19 20 21 21 21 21 21 21 23 24 24 24 23 22 23 24 26 26 26 25 25 25 25 25 25 25 25 25 26 26 26 26 26 26 26
34 34 35 37 37 36 36 37 36 33 29 28 29 28 27 26 25 24 24 24 24 23 22 24 25 24 24 24 24 25 26 25 25 24 24 24 23 21 21 20 20 20 20 19 19 18 18 19 18 18 17 17 17 19 21 21 21 20 20 21 22 24 24 23 23 22 23 24 25 26 26 26 25 25 25 25 25 25 25 26 26 27 27 27 27 27
31 33 34 35 35 36 36 36 34 32 29 29 29 29 27 26 25 25 25 25 24 24 23 24 24 23 23 24 24 24 25 25 26 25 25 24 23 22 22 21 21 21 21 20 19 18 18 19 18 17 17 16 16 17 19 20 20 19 19 18 20 21 22 22 22 22 23 24 25 25 26 26 26 25 25 25 25 26 26 26 27 27 27 27 27 27
29 30 31 33 33 34 35 34 32 31 32 31 30 29 29 29 28 26 26 26 26 25 24 24 24 22 22 22 23 23 24 24 25 26 25 24 24 23 23 22 21 22 22 22 20 19 19 19 18 17 17 16 16 16 17 19 19 19 18 18 18 19 20 21 22 22 22 23 25 25 26 26 26 26 25 25 26 26 26 26 27 27 27 28 28 29
29 29 31 32 33 33 35 36 35 34 33 33 32 33 33 32 30 29 28 28 27 26 26 26 25 23 23 23 23 23 23 23 24 25 25 25 25 24 23 22 22 22 23 23 22 21 21 20 19 18 17 16 16 16 17 18 19 19 19 19 18 18 19 20 21 21 22 22 23 25 25 25 25 25 25 25 25 25 26 26 27 27 27 28 29 30
30 31 32 33 33 33 35 37 36 35 35 35 35 36 36 35 33 32 31 30 29 28 28 28 27 26 25 24 24 24 24 24 24 24 24 25 25 24 24 23 23 23 23 23 23 23 22 22 21 20 18 17 16 16 17 18 19 20 20 20 19 19 19 19 20 20 21 21 21 22 23 24 24 24 24 24 24 25 26 26 27 28 29 30 31 31
27 29 31 33 34 34 36 37 38 38 38 38 38 37 38 37 36 34 33 32 31 30 30 29 29 28 27 26 25 24 25 25 25 25 25 25 25 25 24 24 24 24 24 24 24 24 23 23 22 21 20 19 18 17 17 17 18 19 20 20 20 19 18 18 19 19 19 19 20 20 21 22 23 23 23 24 24 25 26 26 27 28 28 29 30 30
26 28 30 33 35 36 37 38 39 40 40 41 40 39 38 37 37 36 35 34 33 32 31 31 31 31 30 28 26 25 26 26 25 25 26 25 25 25 25 25 24 24 24 24 24 24 24 23 22 22 21 20 19 18 18 18 18 18 19 19 20 19 19 19 18 18 18 19 19 19 20 21 22 22 23 24 24 24 24 24 25 26 26 27 27 28
28 30 31 32 34 36 37 36 37 38 38 39 39 39 38 37 37 37 37 37 36 34 33 32 31 31 32 30 28 27 27 26 26 26 27 26 26 25 25 25 25 25 24 24 24 25 24 23 22 22 21 21 20 20 19 18 18 18 18 18 19 19 20 20 19 19 19 19 20 20 20 20 21 22 23 23 23 23 24 24 25 26 26 27 27 28
29 31 31 32 34 35 35 35 36 37 38 39 39 39 39 38 39 38 38 37 37 36 36 35 33 32 32 31 30 29 29 28 27 27 27 27 26 25 26 26 26 25 24 24 24 25 24 23 22 21 21 21 21 20 20 19 18 18 18 18 18 19 20 20 20 20 20 20 20 21 21 21 22 23 23 24 24 24 25 25 26 27 27 28 28 29
Wind_Direction
213 216 218 219 219 217 217 218 219 221 223 223 222 223 223 224 224 219 218 216 215 220 221 223 227 226 224 225 223 216 216 224 225 221 218 215 211 213 214 212 215 215 207 201 199 197 195 194 193 192 191 191 192 192 191 190 190 190 190 189 190 189 189 189 189 190 191 192 193 193 195 195 195 196 197 198 198 197 196 195 197 198 198 198 197 197
214 220 220 218 219 219 218 219 220 220 223 225 225 225 224 224 224 221 219 216 214 221 224 224 228 228 225 226 223 215 216 223 224 220 220 218 211 212 215 213 216 216 208 201 198 197 196 195 194 193 192 191 192 192 192 191 191 191 191 191 191 191 190 191 190 191 192 193 194 194 195 196 195 196 198 198 199 198 197 197 199 201 201 202 202 200
217 223 221 218 218 219 219 219 220 221 221 223 225 226 227 224 223 223 220 220 219 223 228 228 230 231 229 230 229 226 225 223 222 222 222 219 213 213 215 212 215 217 209 201 198 197 197 196 195 194 193 193 192 192 193 193 192 192 193 193 193 192 191 192 191 192 193 194 195 195 196 196 196 196 198 199 199 199 198 199 202 204 204 205 206 204
217 222 220 217 217 217 220 219 219 221 221 222 223 223 226 223 222 223 221 221 222 223 229 231 233 234 232 232 231 232 232 225 222 223 223 220 215 215 216 212 214 216 209 202 200 199 198 196 195 195 195 194 193 193 193 194 194 194 194 194 195 195 193 193 194 194 194 194 195 196 197 197 197 197 198 199 200 200 200 201 205 208 207 208 209 209
219 220 217 216 216 216 218 218 217 220 221 223 223 223 224 224 224 225 223 226 224 224 230 234 237 236 233 233 232 231 232 228 222 221 222 223 218 214 215 214 215 216 212 205 200 198 198 197 196 196 195 195 195 194 194 195 195 197 197 197 197 198 197 196 196 196 195 195 196 196 197 197 198 199 199 200 201 202 202 203 207 211 211 211 213 213
222 220 215 215 216 216 217 217 217 218 221 223 224 225 226 227 228 229 227 229 227 226 229 230 236 238 233 234 234 231 231 228 222 221 223 224 221 215 213 215 214 213 214 210 202 198 198 198 197 197 197 197 197 197 196 196 197 198 199 199 199 199 200 199 199 199 198 197 197 197 197 198 199 200 201 201 202 202 204 206 208 212 213 214 215 215
222 220 217 215 214 214 216 218 217 217 221 223 222 223 226 230 232 231 230 230 228 229 229 226 231 238 236 233 233 231 231 229 222 220 223 224 223 219 215 215 211 209 214 212 205 200 199 198 198 198 198 199 199 198 197 197 197 198 200 201 201 202 202 202 201 201 201 200 199 199 199 200 201 202 203 205 204 204 207 208 209 212 215 216 216 217
220 218 216 214 214 214 216 218 216 215 219 222 220 220 223 227 230 230 231 232 232 234 236 231 231 238 239 235 232 228 229 229 220 216 221 222 221 220 218 216 213 209 212 210 203 200 200 201 200 199 199 200 200 199 198 198 198 199 201 202 203 204 203 203 203 202 203 203 202 202 203 203 204 206 206 207 207 207 208 210 211 211 215 218 218 218
217 217 215 213 214 216 217 217 215 214 219 222 220 220 221 224 227 229 231 234 235 237 238 234 232 238 241 236 233 230 228 225 217 214 220 220 219 220 219 217 214 212 211 208 203 202 202 203 202 201 200 200 200 199 199 200 200 201 202 203 204 204 205 205 204 204 205 206 206 206 206 206 207 208 208 208 209 210 210 211 213 213 214 218 220 220
218 218 217 215 216 218 217 216 215 215 219 220 219 221 221 222 224 226 229 232 235 237 236 233 231 237 242 235 230 230 228 223 218 220 223 219 217 219 220 216 212 211 211 208 206 204 205 205 203 202 200 200 201 201 200 200 201 202 202 203 204 205 206 206 206 207 207 208 208 208 209 209 210 211 210 209 210 213 213 214 216 217 217 219 222 222
220 218 218 218 217 217 217 216 216 217 217 216 218 219 219 221 223 225 228 230 234 237 236 233 232 236 242 236 228 228 227 225 224 225 221 217 216 217 219 217 210 209 210 209 208 206 206 206 204 203 201 201 201 201 201 201 200 201 203 204 205 206 207 207 208 208 209 210 210 210 211 211 212 213 212 211 211 214 217 217 219 220 221 222 224 225
221 218 218 219 216 215 216 216 215 216 214 213 215 215 216 219 221 224 225 226 233 238 235 233 233 236 240 236 231 231 228 226 228 225 218 217 218 217 219 217 210 207 207 208 209 208 207 207 205 205 203 202 202 202 201 202 201 201 204 205 205 206 207 208 209 209 210 211 212 212 213 213 213 214 215 214 215 216 219 221 221 223 224 225 227 227
221 220 219 217 215 213 215 215 213 212 212 211 213 212 213 214 215 219 221 223 233 238 235 232 229 233 238 237 234 235 231 226 227 225 219 218 218 215 215 215 210 207 206 205 208 209 208 207 207 206 205 203 203 202 201 202 202 202 204 206 206 207 208 208 209 210 211 212 213 213 214 214 214 215 217 218 219 220 222 224 225 225 226 227 229 229
219 220 218 214 213 212 213 213 210 210 210 210 211 210 211 213 213 217 221 225 233 236 233 230 227 231 238 237 234 234 232 229 227 225 221 220 217 212 211 211 210 208 207 206 207 209 209 208 207 207 206 205 204 203 202 202 202 203 205 206 207 208 208 209 210 210 212 213 214 214 215 215 216 216 218 220 221 223 224 227 228 228 229 230 231 231
216 218 217 214 213 212 213 215 213 210 211 211 212 212 214 217 219 221 223 226 232 233 228 224 226 231 234 235 234 231 229 228 228 224 220 218 215 210 208 211 214 211 209 208 207 208 210 208 207 208 207 206 206 204 203 203 202 203 206 207 207 208 209 209 210 211 212 214 214 215 215 216 217 218 219 221 223 225 226 228 230 231 231 232 233 234
218 221 219 216 216 213 212 215 214 212 213 212 213 215 217 218 223 228 229 228 231 234 229 223 226 232 233 234 233 230 225 222 222 221 218 216 214 211 208 211 215 214 210 210 208 207 209 209 208 208 208 207 207 206 205 204 204 205 207 208 208 209 209 210 211 212 213 214 215 216 217 218 219 220 221 222 224 226 228 230 231 233 233 234 235 236
220 223 219 214 215 215 213 213 213 214 214 212 213 217 218 218 224 231 233 232 233 235 233 226 225 227 230 230 226 225 226 221 218 218 217 215 213 211 209 209 213 214 212 210 208 206 207 208 208 209 209 208 208 208 207 206 207 207 208 208 208 209 210 211 212 213 214 216 216 217 218 219 220 221 222 223 224 226 229 231 232 234 235 235 236 237
221 223 219 212 211 213 213 212 214 216 215 213 214 216 216 218 224 230 232 230 230 233 234 229 227 224 224 227 223 222 225 222 217 216 216 214 212 212 211 210 211 213 212 209 207 205 205 207 208 209 210 210 209 209 208 208 208 209 209 209 209 209 210 211 212 213 215 216 217 218 219 220 221 222 224 225 226 227 229 231 233 234 236 236 237 238
221 223 219 211 209 209 210 212 215 216 216 218 218 214 213 217 220 221 226 228 226 229 232 230 231 230 226 225 223 220 220 219 215 212 214 214 213 213 212 210 209 210 211 209 207 206 206 206 207 208 210 211 210 209 209 208 209 209 210 210 210 210 211 212 212 214 215 216 218 219 220 221 222 223 225 226 228 229 231 232 234 235 236 237 238 239
219 221 218 209 206 205 207 212 214 213 214 218 220 215 215 219 219 218 222 226 226 229 230 228 231 234 232 227 224 219 214 215 213 210 212 212 210 210 210 209 207 208 210 209 209 208 206 207 208 208 210 211 210 210 209 209 209 209 210 211 212 212 212 213 214 215 216 217 219 220 220 221 222 224 225 227 229 230 232 234 235 236 237 238 239 240
218 219 215 206 203 205 210 214 215 212 210 213 217 216 214 216 219 220 222 222 224 228 228 227 228 229 228 222 219 217 212 212 213 211 212 213 210 208 208 208 207 208 210 210 210 209 207 207 208 208 209 210 210 210 210 210 210 210 210 211 212 213 213 214 215 216 217 218 219 220 221 223 224 225 226 228 230 231 233 234 235 237 238 239 240 240
217 218 214 208 207 211 214 214 215 214 212 212 216 217 215 214 215 220 221 219 222 226 226 229 230 223 213 210 212 215 213 211 211 211 211 212 212 210 208 208 207 208 210 211 211 211 209 208 208 208 209 210 211 210 210 210 210 210 211 211 212 213 214 215 216 217 218 219 220 221 223 224 226 227 228 229 231 232 234 235 236 237 239 240 241 241
216 218 215 213 213 215 215 213 214 215 214 214 216 217 217 215 215 219 221 218 218 222 224 227 228 220 203 198 200 205 209 209 209 210 210 209 209 209 208 208 208 208 210 211 212 212 210 208 208 208 208 209 211 210 210 210 211 211 211 211 213 214 216 217 218 218 219 220 222 223 224 226 227 228 229 230 232 233 234 236 237 238 239 240 242 242
215 217 216 215 215 214 213 211 212 213 214 215 215 216 217 217 216 219 222 220 217 218 218 219 223 217 198 193 200 204 210 213 212 211 210 207 206 206 206 206 207 207 209 210 211 210 210 208 207 208 209 209 210 211 210 211 212 212 212 212 213 215 217 218 218 219 221 222 223 224 225 226 227 229 230 231 232 233 234 236 237 239 240 241 242 243
213 214 213 214 213 209 208 209 209 210 214 216 215 215 217 217 216 218 220 221 220 217 212 213 220 216 204 202 212 215 215 216 212 207 204 202 201 200 201 202 203 204 206 209 210 210 210 209 208 210 211 210 210 211 211 211 213 214 214 214 215 216 217 218 219 221 222 223 224 224 225 226 227 229 230 231 232 233 235 236 237 239 241 242 243 243
214 213 211 212 212 208 208 210 210 209 211 216 215 213 214 216 216 216 217 220 220 216 213 214 213 205 201 204 209 212 214 211 205 202 199 197 195 194 196 200 204 206 209 211 211 210 211 212 211 212 213 212 211 213 214 213 214 215 216 216 217 217 217 218 220 221 224 225 225 225 226 226 228 229 230 231 232 234 235 237 237 238 240 242 243 243
215 214 214 214 215 214 214 217 218 213 211 214 215 213 213 214 215 216 217 220 219 215 216 216 211 204 200 202 207 207 204 201 197 196 194 193 195 196 199 205 208 209 210 211 210 211 212 213 214 214 214 213 213 215 216 217 217 217 217 218 219 220 219 220 221 222 224 226 226 226 226 226 227 228 229 230 232 233 235 236 236 237 238 240 242 244
216 216 215 216 218 220 220 222 223 217 213 214 215 214 213 213 214 216 218 218 216 216 218 214 213 216 205 196 202 199 190 188 188 188 188 191 198 202 204 207 208 207 206 207 207 208 210 212 214 213 213 214 215 216 218 219 220 220 219 219 220 221 222 221 221 222 224 226 227 227 227 227 227 228 229 230 232 233 234 235 235 236 237 238 240 242
216 216 216 217 219 221 222 224 225 220 216 218 218 216 214 213 214 216 218 218 215 218 219 211 211 217 212 193 189 189 186 183 181 182 187 190 195 200 204 208 209 205 204 204 205 206 208 211 213 213 214 215 216 218 219 221 222 222 222 222 221 222 223 223 222 222 224 226 227 228 227 227 228 229 230 231 232 233 234 235 236 236 236 237 238 241
214 214 217 217 218 221 222 222 224 221 220 222 222 217 214 214 215 216 218 218 217 219 219 212 209 214 215 208 194 190 195 196 195 199 200 197 203 210 211 213 213 207 205 207 208 209 211 212 214 215 216 217 218 219 220 222 223 224 225 225 224 224 223 224 223 223 224 226 227 228 227 227 228 229 230 231 231 232 234 235 236 237 237 237 238 240
212 213 217 218 218 219 219 219 221 221 221 221 221 218 215 215 215 216 217 217 217 218 217 214 211 211 213 214 211 206 208 213 216 220 219 216 222 226 220 218 217 212 210 210 210 210 212 213 216 218 219 220 220 221 222 222 224 225 226 226 226 225 225 225 225 225 226 226 227 227 227 228 229 230 230 231 232 232 234 235 236 237 238 239 239 241
212 215 216 216 217 218 217 217 219 221 223 222 220 218 217 216 216 215 216 216 216 217 217 216 216 214 211 214 217 219 220 223 224 225 225 227 229 228 223 222 221 218 218 218 217 217 218 218 219 220 222 223 223 223 224 224 224 226 227 227 227 226 225 226 227 228 227 226 227 227 228 228 229 230 231 232 232 233 234 235 236 238 239 240 241 242
212 215 214 214 217 218 217 217 218 221 223 223 220 218 216 217 217 216 216 216 216 217 216 216 217 216 212 214 218 220 221 224 226 227 228 230 230 229 228 227 225 223 224 227 228 228 227 226 225 223 223 224 224 225 226 226 226 228 229 228 227 226 226 226 228 229 228 227 227 228 229 229 229 230 231 232 232 233 234 235 237 238 240 241 242 243
213 214 213 214 216 215 213 213 216 220 222 221 220 219 220 219 219 219 219 218 217 217 217 218 217 216 215 217 221 222 223 225 227 229 230 232 232 231 229 228 229 229 229 231 234 233 232 232 231 228 228 229 229 228 227 227 229 229 230 230 228 227 227 227 228 229 229 228 228 228 229 229 230 230 231 231 232 233 234 236 238 239 241 242 242 243
215 214 213 214 214 212 209 209 214 220 223 222 221 222 223 223 223 224 225 223 222 222 222 222 222 220 219 221 222 223 224 225 226 228 231 233 233 232 232 232 232 233 233 235 236 235 234 233 231 232 233 233 231 230 229 229 229 228 229 230 229 228 227 227 228 229 230 230 230 229 229 229 230 230 231 231 232 233 235 238 239 240 241 242 243 245
216 215 215 215 214 213 212 211 213 218 222 220 218 219 222 222 222 223 226 226 225 225 224 224 225 224 224 225 225 225 227 229 232 234 236 237 237 236 236 236 236 236 236 236 236 234 233 233 234 236 238 236 234 232 231 231 229 227 228 230 229 228 227 227 228 228 229 230 230 230 230 229 229 230 231 231 233 235 237 239 240 241 242 243 245 246
215 215 216 215 213 214 216 214 213 216 218 216 215 218 220 221 220 222 225 226 225 225 224 224 225 224 223 224 226 227 230 232 234 235 236 237 237 237 239 239 239 238 237 236 236 236 236 238 239 240 240 239 238 236 234 233 231 228 227 227 228 228 227 228 228 227 228 229 230 229 230 230 229 230 231 232 234 236 238 240 241 242 243 244 246 247
214 214 215 215 213 214 217 217 216 218 219 217 216 217 219 219 220 221 224 224 223 223 223 222 222 221 221 222 224 224 224 225 227 232 236 237 236 239 241 238 235 235 235 235 236 238 238 239 240 241 242 242 240 238 236 234 233 230 227 226 227 228 228 229 229 228 228 229 229 229 229 230 230 231 232 233 235 237 239 240 242 243 244 246 247 248
215 215 215 216 215 214 216 218 218 218 219 219 218 216 216 218 218 218 220 221 221 221 221 222 223 223 224 225 226 225 225 228 230 234 239 238 237 241 244 237 231 231 234 236 237 240 240 241 242 243 244 243 241 238 236 234 233 231 228 226 227 228 230 231 231 230 229 229 230 230 230 230 230 231 233 235 237 238 239 241 242 244 245 247 249 250
214 214 215 215 216 216 216 218 218 217 217 218 216 214 214 215 215 216 217 217 216 218 220 221 222 223 224 226 228 229 229 230 231 234 239 242 241 240 241 240 238 238 239 239 239 242 243 243 243 242 241 241 240 237 234 232 231 231 229 227 227 229 231 232 232 230 229 229 230 231 231 231 232 233 235 237 238 240 241 241 242 244 246 248 250 251
213 214 215 216 216 216 217 218 218 218 218 216 213 213 214 213 214 216 217 215 215 217 219 219 220 221 223 225 228 229 230 231 234 237 241 243 242 240 241 243 243 241 239 239 241 244 243 241 240 240 241 241 240 238 234 231 231 231 229 226 227 229 231 231 231 230 229 229 230 231 232 233 234 236 237 239 240 241 242 243 244 245 246 248 249 251
211 213 215 216 216 216 217 218 219 219 217 216 215 213 214 215 215 216 218 219 219 218 219 221 222 222 224 226 227 229 232 236 239 241 242 242 241 242 244 244 243 240 239 239 240 240 238 237 238 239 240 241 240 237 233 231 231 231 229 226 226 228 229 230 230 230 230 230 230 231 233 234 235 236 238 239 240 242 243 244 245 245 246 248 250 252
212 213 214 215 215 216 216 218 219 217 215 216 216 214 214 218 219 218 219 221 221 221 223 224 224 224 225 227 229 231 235 237 238 239 241 241 241 242 242 242 242 240 239 238 237 236 235 236 236 236 238 240 239 235 231 230 231 232 230 229 228 228 229 230 230 229 229 230 230 231 233 234 235 236 238 239 240 242 244 246 247 248 249 250 251 253
215 215 216 215 214 215 216 217 218 218 216 217 218 217 218 220 220 220 221 222 223 224 226 227 226 226 227 229 230 233 235 236 236 237 239 239 240 240 239 239 239 238 237 236 235 235 234 232 233 234 236 238 238 234 230 229 229 230 230 230 230 230 230 231 231 230 230 231 232 232 233 235 235 237 239 240 242 244 246 247 249 250 251 252 253 255
216 217 219 218 217 218 219 219 220 220 219 219 221 222 224 224 223 224 225 225 225 227 229 229 229 229 230 230 231 233 234 236 236 237 237 238 239 238 237 237 238 238 237 236 235 235 233 230 231 233 234 235 236 235 231 228 227 228 230 232 232 231 231 231 232 232 232 233 233 234 234 235 236 237 239 241 243 245 247 248 249 251 252 253 255 258
218 219 221 220 221 223 222 221 221 221 221 223 226 226 226 226 226 227 227 227 228 230 232 233 233 233 233 233 233 233 235 237 238 237 237 237 238 237 236 237 239 239 238 236 234 234 233 231 230 231 231 232 234 235 233 231 229 229 232 235 236 234 234 233 232 233 234 235 235 235 235 235 236 237 239 241 244 246 248 250 251 252 253 255 257 259
219 220 221 222 223 225 223 221 221 223 225 228 229 228 228 228 229 229 229 230 233 235 236 237 237 237 236 235 235 235 237 238 239 239 238 237 238 238 237 238 238 239 239 237 235 235 234 232 231 230 230 231 233 234 234 234 233 233 234 236 236 236 235 234 232 232 233 234 234 234 234 234 235 237 238 241 243 246 248 251 252 253 254 256 258 260
219 220 222 223 224 226 225 225 226 229 230 231 230 229 229 230 232 232 232 234 236 239 240 240 240 239 238 238 237 237 237 238 239 238 239 238 238 238 237 237 238 239 239 237 236 234 233 232 230 230 230 231 233 234 235 235 236 236 236 236 236 235 234 233 232 232 231 231 233 234 234 234 235 237 239 241 244 248 250 252 253 255 256 258 260 262
223 223 223 224 226 227 228 228 230 232 232 231 230 230 231 232 233 233 235 236 238 240 241 243 242 241 240 240 240 239 239 239 238 238 239 239 238 238 237 238 238 239 238 238 236 234 232 231 230 230 231 232 233 234 235 235 236 237 238 238 237 235 233 232 233 233 233 234 236 236 236 236 237 240 243 244 246 250 253 254 255 257 258 261 263 264
227 226 225 226 227 228 228 228 229 231 231 230 229 230 232 233 234 235 236 238 238 240 241 243 244 243 242 240 240 241 241 240 239 240 240 239 239 239 239 238 239 239 238 237 236 234 231 230 230 230 231 232 233 233 234 235 236 237 237 237 236 236 234 233 234 235 236 237 238 238 239 240 241 242 245 247 249 252 254 256 258 260 261 263 264 265
229 229 229 229 230 230 230 230 230 230 231 231 230 231 233 234 235 236 236 237 238 238 239 241 243 244 243 241 240 240 241 240 240 240 239 239 239 240 240 239 238 238 237 236 234 231 229 228 228 229 231 232 233 233 233 234 235 236 236 236 236 236 235 234 235 236 237 238 239 240 242 244 244 244 247 251 254 255 256 258 261 263 263 265 266 267